GW4905 Weather Reports


time (UTC)temp
C
wind
direction
speed
KPH
gust
KPH
rain 1hr
cm
rain 24hr
cm
rain mn
cm
humidity
%
barometer
mb
20260505170548 26 196 6.4 19.3 0.00 0.00 0.00 40 1008.5
20260505165625 26 185 4.8 19.3 0.00 0.00 0.00 37 1008.6
20260505164700 25 197 6.4 16.1 0.00 0.00 0.00 37 1008.8
20260505163737 26 245 8.0 16.1 0.00 0.00 0.00 37 1008.9
20260505162629 25 214 8.0 17.7 0.00 0.00 0.00 36 1009.0
20260505161837 26 220 6.4 14.5 0.00 0.00 0.00 40 1009.1
20260505152501 25 239 8.0 19.3 0.00 0.00 0.00 39 1009.3
20260505151509 25 206 6.4 16.1 0.00 0.00 0.00 41 1009.3
20260505115402 16 191 3.2 11.3 0.00 0.00 0.00 61 1010.7
20260505114444 15 198 1.6 6.4 0.00 0.00 0.00 64 1010.7
20260505111438 14 189 1.6 6.4 0.00 0.00 0.00 66 1010.6
20260505082214 15 163 1.6 6.4 0.00 0.00 0.00 63 1009.4
20260505080435 15 192 1.6 4.8 0.00 0.00 0.00 62 1009.2
20260505071026 16 189 1.6 6.4 0.00 0.00 0.00 59 1008.9
20260505063844 17 194 3.2 9.7 0.00 0.00 0.00 56 1008.9
20260505055719 17 192 1.6 6.4 0.00 0.00 0.00 58 1009.0
20260505051603 17 177 1.6 8.0 0.00 0.00 0.00 56 1009.1
20260505034333 17 191 1.6 6.4 0.00 0.00 0.00 54 1008.8
20260505032716 17 180 1.6 4.8 0.00 0.00 0.00 52 1008.8
20260505032547 17 180 1.6 4.8 0.00 0.00 0.00 52 1008.8
20260505025613 17 178 1.6 6.4 0.00 0.00 0.00 52 1008.8
20260505023739 17 175 1.6 4.8 0.00 0.00 0.00 50 1008.9
20260505020936 17 137 0.0 1.6 0.00 0.00 0.00 49 1008.7
20260505015108 18 184 0.0 3.2 0.00 0.00 0.00 48 1008.7
20260505013238 18 192 1.6 3.2 0.00 0.00 0.00 48 1008.6
20260505011540 18 156 1.6 3.2 0.00 0.00 0.00 46 1008.3
20260505005715 18 161 1.6 3.2 0.00 0.00 0.00 46 1008.0
20260505003711 19 170 1.6 3.2 0.00 0.00 0.00 44 1007.9
20260505001841 19 172 1.6 4.8 0.00 0.00 0.00 43 1007.9
20260505000013 20 175 1.6 3.2 0.00 0.00 0.00 42 1007.8
20260504234130 20 162 1.6 3.2 0.00 0.00 0.00 40 1007.4
20260504232300 21 162 1.6 4.8 0.00 0.00 0.00 39 1007.4
20260504230430 21 173 1.6 6.4 0.00 0.00 0.00 38 1007.4
20260504225636 21 170 1.6 4.8 0.00 0.00 0.00 37 1007.4
20260504224543 21 159 1.6 8.0 0.00 0.00 0.00 37 1007.4
20260504223618 21 174 3.2 8.0 0.00 0.00 0.00 37 1007.4
20260504222654 22 194 1.6 6.4 0.00 0.00 0.00 37 1007.4
20260504221731 22 176 1.6 6.4 0.00 0.00 0.00 37 1007.4
20260504215706 22 196 3.2 12.9 0.00 0.00 0.00 36 1007.4
20260504214614 22 177 3.2 14.5 0.00 0.00 0.00 36 1007.4
20260504213643 23 177 3.2 11.3 0.00 0.00 0.00 37 1007.4
20260504212720 22 182 4.8 16.1 0.00 0.00 0.00 36 1007.5
20260504211757 23 198 3.2 9.7 0.00 0.00 0.00 36 1007.4
20260504210748 23 194 3.2 11.3 0.00 0.00 0.00 37 1007.3
20260504205823 23 180 4.8 11.3 0.00 0.00 0.00 36 1007.5
20260504204859 23 186 4.8 11.3 0.00 0.00 0.00 37 1007.6
20260504203933 23 182 3.2 11.3 0.00 0.00 0.00 36 1007.5
20260504203010 23 211 4.8 11.3 0.00 0.00 0.00 36 1007.5
20260504201110 22 193 3.2 8.0 0.00 0.00 0.00 35 1008.0
20260504200147 22 194 3.2 9.7 0.00 0.00 0.00 34 1008.2
20260504193009 22 195 4.8 12.9 0.00 0.00 0.00 35 1008.7
20260504192154 22 206 3.2 9.7 0.00 0.00 0.00 34 1008.9
20260504185929 23 171 3.2 9.7 0.00 0.00 0.00 36 1009.1
20260504185133 21 190 4.8 16.1 0.00 0.00 0.00 37 1009.4
20260504184035 23 179 3.2 12.9 0.00 0.00 0.00 38 1009.5
20260504181943 22 186 4.8 12.9 0.00 0.00 0.00 36 1009.8
20260504175822 21 176 3.2 12.9 0.00 0.00 0.00 35 1010.1
20260504174859 21 200 4.8 14.5 0.00 0.00 0.00 36 1010.1
20260504173852 21 183 3.2 9.7 0.00 0.00 0.00 37 1010.3
20260504171800 20 178 3.2 11.3 0.00 0.00 0.00 36 1010.5
20260504170833 20 198 4.8 8.0 0.00 0.00 0.00 38 1010.6